Preview of NWS' New Version of Forecast
This preview is not operational and should not be used for support decisions.

Regional Weather Roundup (RWR)

Issued by National Weather Service (NWS)

                            
000
ASUS45 KCYS 190910
RWRWY 

WYOMING REGIONAL WEATHER ROUNDUP
NATIONAL WEATHER SERVICE CHEYENNE WY
300 AM MDT MON AUG 19 2019

NOTE:  "FAIR" INDICATES FEW OR NO CLOUDS BELOW 12,000 FEET
WITH NO SIGNIFICANT WEATHER AND/OR OBSTRUCTIONS TO VISIBILITY.

WYZ001-191000-
...YELLOWSTONE NATIONAL PARK...
  
CITY           SKY/WX    TMP DP  RH WIND       PRES   REMARKS
LK YELLOWSTONE   N/A     39  34  82 NW3       30.22R                  
W YELLOWSTONE  NOT AVBL                                               

$$
WYZ002>013-054>058-071-098>099-191000-
...NORTHERN WYOMING...
  
CITY           SKY/WX    TMP DP  RH WIND       PRES   REMARKS
JACKSON        NOT AVBL                                               
CODY           CLEAR     59  37  44 VRB3      29.96F                  
GREYBULL       CLEAR     62  41  46 SE5       29.88S                  
WORLAND        CLEAR     54  39  57 S7        29.90S                  
SHERIDAN       CLEAR     53  46  77 SE6       29.89F                  
BUFFALO        CLEAR     61  45  55 SE3       29.96F                  
GILLETTE       PTCLDY    59  51  75 S8        29.94F                  
HULETT         FAIR      57  50  77 CALM      29.98S                  
NEWCASTLE      FAIR      57  46  67 CALM      29.98S                  

$$
WYZ014>020-022>026-101>103-191000-
...CENTRAL WYOMING...
  
CITY           SKY/WX    TMP DP  RH WIND       PRES   REMARKS
BIG PINEY      CLEAR     44  28  53 N5        30.20R                  
PINEDALE       CLEAR     41  34  75 NW7       30.21S                  
DUBOIS         FAIR      57  30  35 W8        30.15S                  
LANDER         PTCLDY    64  32  30 NW8       30.04S                  
RIVERTON       PTCLDY    64  32  30 SW9       30.03S                  
CASPER         CLEAR     54  33  45 W6        30.03S                  
DOUGLAS        CLEAR     55  49  80 CALM      30.01S                  

$$
WYZ021-027>030-104>119-191000-
...SOUTHERN WYOMING...
  
CITY           SKY/WX    TMP DP  RH WIND       PRES   REMARKS
EVANSTON       CLEAR     60  27  28 S7        30.20R                  
KEMMERER       CLEAR     50  30  46 NW6       30.21R                  
FORT BRIDGER   NOT AVBL                                               
ROCK SPRINGS   PTCLDY    60  26  27 SE5       30.17S                  
DIXON          FAIR      53  29  39 E18       30.20F                  
RAWLINS        CLEAR     50  24  36 CALM      30.17S                  
SARATOGA       FAIR      54  30  40 S10       30.21S                  
LARAMIE        CLEAR     49  27  42 SE8       30.21S                  
CHEYENNE       CLEAR     59  31  34 W8        30.12S                  
TORRINGTON     CLEAR     57  56  96 E7        29.96F                  
PINE BLUFFS    FAIR      59  52  77 W5        30.05S                  

$$